GFSFLT1_925_thetae_021.txt.gz
Theta_e
292 292 290 289 288 287 287 287 286 285 285 285 285 285 284 284 284 283 283 283 283 283 283 283 283 282 282 282 282 282 282 282
292 292 291 290 289 287 287 286 285 285 285 285 285 285 285 284 283 283 283 283 283 282 283 282 282 282 281 281 281 280 281 281
292 291 290 290 289 288 287 286 286 285 285 285 285 285 285 284 283 283 282 282 282 282 281 281 280 280 279 279 279 279 279 280
289 289 289 289 288 288 287 286 286 286 286 285 285 284 284 284 283 282 281 281 280 279 279 278 278 277 277 278 278 279 279 279
286 288 289 288 287 287 287 286 286 286 286 285 285 285 284 283 283 282 281 280 280 279 278 277 276 276 276 277 278 278 278 278
288 286 287 287 287 287 286 287 287 286 286 285 285 284 284 284 283 281 280 279 278 278 278 276 275 275 275 276 276 276 276 276
286 286 286 287 287 287 288 287 286 285 285 285 284 284 284 282 281 280 279 278 277 276 275 274 273 273 273 274 274 274 274 274
286 287 288 288 289 288 288 287 286 285 284 284 284 283 281 279 278 278 277 276 274 273 271 271 270 270 272 272 272 271 271 271
287 288 289 289 288 287 286 286 284 284 284 283 282 280 278 278 277 275 274 273 272 271 269 268 268 269 269 270 270 270 269 269
289 289 289 288 287 286 285 284 283 283 282 281 279 277 277 276 275 273 271 270 270 268 267 266 266 266 268 269 269 269 269 269
289 288 287 286 286 285 283 282 281 280 279 277 276 275 274 273 271 270 269 268 267 266 266 265 265 265 266 268 269 269 269 269
288 287 287 284 283 282 281 281 280 279 277 275 273 272 271 270 270 269 267 266 266 265 265 264 265 265 266 268 269 269 269 270
287 286 284 282 281 280 279 278 277 275 274 273 272 271 271 269 268 267 266 265 264 263 263 264 265 265 266 268 269 271 271 271
286 283 281 280 279 278 276 275 273 272 271 271 270 270 269 268 268 266 265 263 263 262 263 264 264 265 266 268 270 271 272 272
283 280 279 278 276 275 273 272 271 270 269 268 268 268 268 267 266 265 264 263 262 263 264 265 268 269 269 269 270 271 272 272
281 279 277 276 274 273 271 270 269 268 267 267 266 266 266 265 265 265 265 264 266 267 269 269 269 269 271 272 272 272 273 274
278 277 276 274 272 270 269 268 267 267 266 265 265 265 264 264 264 266 265 266 268 269 269 269 269 270 271 271 272 273 272 271
276 275 273 271 270 269 268 267 267 266 265 264 264 263 263 262 262 261 267 265 265 266 267 267 269 269 270 271 270 269 267 264
273 271 270 269 269 268 267 267 266 265 264 263 264 263 263 262 261 261 260 261 264 265 264 265 266 268 268 268 265 263 262 262
269 268 267 267 268 266 266 265 265 264 264 263 263 263 262 261 261 261 261 260 261 263 265 265 264 266 265 264 262 261 261 262

GFSFLT1_925_thetae_024.txt.gz
Theta_e
291 291 289 288 287 287 287 286 285 285 286 285 285 285 285 285 284 284 283 283 283 283 282 282 282 281 281 281 281 281 281 281
292 292 290 289 287 286 286 286 285 285 285 285 285 285 285 284 284 283 282 282 282 281 281 281 280 280 280 280 280 280 281 281
293 292 290 289 288 287 286 286 285 285 285 285 284 284 284 284 284 283 282 281 281 280 280 279 279 279 278 278 278 278 278 279
291 290 290 289 289 287 287 286 286 285 285 285 284 284 284 284 283 283 282 281 280 279 279 278 278 277 277 277 276 277 277 277
288 289 290 290 289 288 287 286 286 285 285 285 284 284 284 284 283 282 281 281 280 279 278 277 276 276 275 275 275 275 275 275
288 288 288 288 288 287 287 286 286 286 285 285 284 284 283 283 284 283 282 281 280 279 278 277 276 274 274 274 274 274 274 273
288 288 287 288 288 288 287 286 286 285 285 285 284 283 284 284 284 283 281 279 279 278 277 276 274 273 273 274 273 272 272 272
288 287 287 288 289 287 287 286 285 285 285 284 283 283 283 283 282 280 279 278 277 276 275 274 273 272 272 272 271 271 271 270
289 288 288 289 288 288 287 287 285 285 284 284 282 282 282 282 280 278 277 276 276 275 273 272 271 270 270 271 270 269 269 269
288 288 288 288 288 287 286 285 285 284 283 282 281 281 281 279 278 277 275 275 274 272 270 270 270 270 269 270 269 269 269 269
288 288 289 289 288 286 285 285 284 283 281 280 280 280 279 277 276 275 274 272 271 271 270 269 269 269 268 269 269 269 269 269
288 288 289 288 287 285 284 283 282 280 279 279 278 278 277 276 274 273 272 271 270 269 268 268 268 268 267 269 270 270 270 271
288 288 288 287 285 284 282 281 280 279 278 277 276 275 275 273 272 271 270 269 268 267 268 267 267 267 267 269 271 272 272 272
287 288 287 286 284 282 282 279 278 277 276 275 275 274 272 271 271 270 269 267 266 265 264 266 267 268 268 269 270 272 272 272
286 285 286 284 282 281 279 278 276 275 274 273 273 272 271 270 269 268 267 266 265 264 264 267 267 269 269 270 271 272 272 272
285 285 285 283 280 278 277 276 275 273 272 271 270 270 269 268 268 267 267 266 265 267 268 269 269 269 271 272 272 273 273 272
284 283 282 280 278 276 275 274 273 271 270 269 268 267 267 266 267 267 266 267 268 270 270 270 269 270 271 271 272 272 269 267
282 281 279 278 276 275 274 272 270 269 268 267 266 266 265 265 264 263 266 266 265 267 267 267 269 269 270 270 270 266 266 263
280 278 276 275 274 272 270 269 269 268 267 266 266 265 264 264 263 262 261 261 264 265 263 265 266 267 269 268 265 265 263 261
274 273 272 271 272 270 269 268 268 267 266 266 264 263 263 263 262 262 261 261 261 263 264 264 265 265 265 264 262 261 261 261

GFSFLT1_925_thetae_030.txt.gz
Theta_e
294 292 290 289 288 288 287 287 286 286 285 285 285 285 284 284 285 285 284 284 283 283 283 283 283 282 282 282 281 281 281 281
295 293 291 290 288 288 287 286 286 285 285 285 285 284 285 285 285 285 285 285 284 284 283 282 282 281 281 280 280 280 280 280
296 294 291 290 289 288 287 286 286 285 285 285 285 285 285 285 286 286 285 285 284 283 282 282 281 280 280 279 279 278 279 279
297 295 293 291 289 288 288 287 286 285 285 284 284 285 285 286 285 285 284 283 283 282 281 280 280 279 278 277 277 278 278 278
298 297 295 293 290 288 287 287 286 285 284 284 284 285 285 285 285 284 283 282 281 281 280 279 279 278 276 277 277 277 277 277
298 297 296 294 292 290 288 286 285 285 284 284 285 285 285 284 283 283 282 280 279 279 279 278 278 276 276 277 277 277 276 276
298 296 295 294 293 291 289 287 285 285 285 284 284 284 284 284 283 281 280 279 279 278 278 277 277 276 276 276 276 275 275 275
297 295 294 293 292 291 290 288 287 286 285 285 284 284 284 283 282 281 279 279 278 277 276 276 276 276 275 274 274 274 274 273
295 294 292 291 291 290 289 287 288 287 286 285 285 284 283 282 281 280 279 278 277 276 276 274 275 275 274 274 274 273 273 272
294 292 291 291 290 289 288 287 287 287 286 286 285 284 283 282 280 279 278 277 276 275 275 274 275 274 273 272 273 273 273 272
289 289 289 289 289 289 288 287 287 287 287 286 284 283 283 281 279 278 278 276 275 274 273 274 274 273 272 272 273 273 273 273
288 289 289 289 289 288 288 287 288 287 286 285 284 283 281 279 278 277 276 275 274 273 273 273 272 272 271 271 273 273 274 274
287 288 288 288 288 287 287 289 287 286 285 284 283 281 279 278 277 276 274 273 272 271 272 271 271 271 271 271 272 273 274 274
287 288 288 288 287 287 288 287 286 285 284 282 280 278 277 276 275 274 273 271 271 270 271 270 269 270 270 271 272 273 273 273
286 286 286 287 286 287 287 286 285 284 281 279 278 276 275 274 273 273 272 271 270 270 270 270 270 270 270 271 272 273 273 274
286 286 287 287 287 286 286 285 283 281 279 277 276 275 274 273 272 272 272 271 270 270 270 270 271 271 272 273 273 273 274 272
286 286 287 286 286 285 285 283 281 279 276 275 274 273 272 270 270 271 269 269 270 271 272 272 272 273 272 272 273 273 271 269
286 287 286 285 284 283 281 280 278 277 275 274 273 271 270 269 269 269 268 268 268 269 269 270 271 271 271 271 272 270 268 266
284 284 283 282 280 279 278 276 275 275 274 273 271 270 269 268 268 267 267 267 267 267 266 266 267 269 269 270 270 267 265 264
279 278 277 276 275 275 274 274 273 272 271 270 269 268 267 266 265 264 264 264 264 265 266 265 265 265 267 267 265 263 262 262

GFSFLT1_925_thetae_033.txt.gz
Theta_e
297 295 293 292 291 291 290 289 289 289 288 288 287 287 286 286 286 285 284 284 284 284 284 284 283 283 283 282 282 282 282 282
297 295 293 292 291 290 290 289 288 288 287 287 286 286 286 286 285 285 285 284 284 284 284 284 284 283 282 282 281 281 281 281
298 296 293 292 291 290 290 289 288 288 287 286 286 286 286 285 285 285 285 285 285 285 285 284 283 282 281 280 280 280 280 280
299 297 294 293 291 291 290 289 288 287 287 286 286 285 286 285 285 285 285 285 285 284 283 282 282 281 280 280 279 279 279 279
300 298 296 294 292 291 291 289 288 287 286 286 286 286 286 285 285 285 285 285 284 283 282 282 281 280 279 279 279 279 279 278
301 300 298 296 293 292 291 289 288 287 286 286 286 285 285 285 284 284 284 284 283 282 281 280 280 279 278 278 278 278 278 277
301 300 299 297 296 293 291 290 288 287 286 286 286 285 285 284 284 284 283 283 283 281 280 280 279 278 278 277 277 277 277 277
301 299 299 298 296 295 293 291 288 287 286 286 286 285 284 284 284 283 283 282 281 280 279 279 279 278 277 276 276 276 276 276
300 299 298 297 296 295 294 291 288 287 286 285 285 285 284 284 283 283 281 281 280 279 279 278 278 277 276 275 274 275 275 275
299 298 296 294 293 292 291 290 289 287 286 286 285 284 284 283 283 282 281 280 279 278 278 277 277 276 275 274 274 274 275 274
295 294 292 291 291 290 289 288 288 288 288 288 287 285 284 284 283 282 281 279 278 278 277 277 277 275 274 273 273 274 274 275
291 291 291 290 290 288 288 288 290 289 288 287 286 285 284 283 282 281 279 278 277 277 276 275 275 275 273 273 273 274 274 274
289 289 289 289 289 288 288 290 289 288 287 286 285 284 283 282 281 279 278 277 275 274 274 274 274 273 273 272 273 274 274 274
289 289 288 288 288 288 289 289 288 287 286 285 284 283 282 281 279 277 276 274 274 273 273 273 273 272 271 272 273 273 274 274
288 287 287 288 288 289 288 288 287 286 285 283 282 281 279 278 277 276 274 273 273 273 274 273 273 272 272 271 272 272 274 274
287 287 288 288 288 288 287 286 286 284 283 281 279 278 277 276 276 275 275 275 274 274 273 273 272 273 273 272 273 273 274 275
287 286 287 287 287 287 286 285 284 282 280 278 277 275 274 274 274 273 273 272 272 272 272 272 273 273 274 275 274 274 273 272
287 287 286 286 285 284 284 283 281 279 279 277 275 275 273 273 272 273 273 272 273 273 273 273 273 273 273 273 273 273 270 269
286 285 284 283 282 281 281 279 277 276 276 275 274 273 273 272 272 271 271 271 270 270 269 269 270 270 271 272 272 270 268 267
281 280 279 278 277 276 276 275 274 274 273 272 272 271 270 270 269 268 268 267 267 267 266 266 267 268 269 269 269 268 267 265